Le nostre stazioni meteo in Italia

Pubblicità
Il mio iltempo24.it
San Pietro Capofiume, Italia (16144): Temperatura & dewpoint: 13.03.2019 19:00:00 - 19.03.2019 19:00:00 (CET)San Pietro Capofiume, Italia (16144): velocità del vento: 13.03.2019 19:00:00 - 19.03.2019 19:00:00 (CET)San Pietro Capofiume, Italia (16144): direzione del vento: 13.03.2019 19:00:00 - 19.03.2019 19:00:00 (CET)San Pietro Capofiume, Italia (16144): reduced air pressure: 13.03.2019 19:00:00 - 19.03.2019 19:00:00 (CET)San Pietro Capofiume, Italia (16144): precipitazioni: 13.03.2019 19:00:00 - 19.03.2019 19:00:00 (CET)
Data & Tempo tt [°C] td [°C] ff [km/h] ff [kn] dd ppp [hPa] rr [mm]
19.03.2019 19:00:00 - - - - - - -
19.03.2019 18:00:00 9,9 0,0 11 6 ENE 1024,4 0,0
19.03.2019 17:00:00 11,3 -0,5 22 12 NE 1023,9 0,0
19.03.2019 16:00:00 11,6 0,1 22 12 NE 1023,7 0,0
19.03.2019 15:00:00 11,4 0,2 23 12 ENE 1023,7 0,0
19.03.2019 14:00:00 11,2 0,3 26 14 NE 1023,6 0,0
19.03.2019 13:00:00 11,1 0,2 27 15 ENE 1023,8 0,0
19.03.2019 12:00:00 10,5 0,5 26 14 NE 1023,8 0,0
19.03.2019 11:00:00 10,3 -0,2 29 15 NE 1023,7 0,0
19.03.2019 10:00:00 9,3 0,2 23 12 NE 1023,4 0,0
19.03.2019 09:00:00 8,6 2,2 11 6 N 1022,9 0,0
19.03.2019 08:00:00 6,6 2,5 15 8 NNO 1022,5 0,0
19.03.2019 07:00:00 5,7 2,2 13 7 NO 1021,9 0,0
19.03.2019 06:00:00 5,7 2,0 10 6 NO 1021,4 0,0
19.03.2019 05:00:00 5,9 2,2 13 7 NO 1021,0 0,0
19.03.2019 04:00:00 5,8 2,3 11 6 NO 1020,5 0,0
19.03.2019 03:00:00 5,8 2,4 10 6 NNO 1020,3 0,0
19.03.2019 02:00:00 6,2 2,5 10 5 NNO 1020,6 0,0
19.03.2019 01:00:00 6,3 3,5 10 5 NNO 1020,7 0,0
19.03.2019 00:00:00 6,9 3,7 3 2 N 1020,5 0,0
18.03.2019 23:00:00 7,2 4,0 11 6 NE 1020,4 0,0
18.03.2019 22:00:00 7,4 4,2 17 9 NE 1019,9 0,0
18.03.2019 21:00:00 7,6 4,4 20 11 NE 1019,4 0,0
18.03.2019 20:00:00 8,4 3,6 19 10 NE 1018,9 0,0
18.03.2019 19:00:00 7,9 3,2 8 4 NE 1018,5 0,0
18.03.2019 18:00:00 8,0 2,9 14 7 ENE 1018,3 0,0
18.03.2019 17:00:00 8,8 2,6 28 15 NE 1017,0 0,0
18.03.2019 16:00:00 9,1 3,1 26 14 ENE 1016,7 0,0
18.03.2019 15:00:00 9,5 3,7 23 12 NE 1016,4 0,0
18.03.2019 14:00:00 10,9 4,8 22 12 ENE 1015,7 0,0
18.03.2019 13:00:00 11,0 5,9 23 12 NE 1015,7 0,0
18.03.2019 12:00:00 10,3 5,3 23 12 NE 1015,1 0,0
18.03.2019 11:00:00 12,3 6,6 16 8 N 1014,1 0,0
18.03.2019 10:00:00 11,5 7,0 16 9 ONO 1013,3 0,2
18.03.2019 09:00:00 9,4 6,8 17 9 O 1012,9 0,0
18.03.2019 08:00:00 9,7 7,1 22 12 O 1012,0 0,0
18.03.2019 07:00:00 10,4 7,5 24 13 ONO 1011,1 0,4
18.03.2019 06:00:00 10,2 5,8 17 9 SSE 1009,3 0,0
18.03.2019 05:00:00 10,1 4,7 15 8 S 1009,5 0,0
18.03.2019 04:00:00 11,6 5,0 22 12 S 1009,5 0,0
18.03.2019 03:00:00 10,3 4,7 18 10 S 1009,7 0,0
18.03.2019 02:00:00 10,0 4,8 10 5 SE 1010,4 0,0
18.03.2019 01:00:00 8,9 4,7 10 5 ESE 1010,9 0,0
18.03.2019 00:00:00 10,0 4,8 12 7 SO 1010,9 0,0
17.03.2019 23:00:00 10,0 4,6 5 3 SO 1011,2 0,0
17.03.2019 22:00:00 9,3 5,1 4 2 SSE 1011,2 0,0
17.03.2019 21:00:00 10,9 6,3 8 5 SSE 1011,1 0,0
17.03.2019 20:00:00 12,2 7,5 18 10 SE 1011,2 0,0
17.03.2019 19:00:00 13,4 7,2 11 6 E 1011,7 0,0
17.03.2019 18:00:00 15,5 6,8 17 9 ESE 1011,6 0,0
17.03.2019 17:00:00 17,2 7,5 21 11 ESE 1011,8 0,0
17.03.2019 16:00:00 18,9 5,7 5 3 ESE 1012,3 0,0
17.03.2019 15:00:00 18,9 6,0 10 6 SE 1012,8 0,0
17.03.2019 14:00:00 18,9 7,0 6 3 SO 1013,5 0,0
17.03.2019 13:00:00 18,4 7,8 7 4 S 1014,7 0,0
17.03.2019 12:00:00 17,8 10,2 6 4 E 1015,8 0,0
17.03.2019 11:00:00 13,2 11,8 5 3 NE 1016,6 0,0
17.03.2019 10:00:00 10,3 9,2 5 3 NE 1017,0 0,0
17.03.2019 09:00:00 8,5 7,4 4 2 N 1017,2 0,0
17.03.2019 08:00:00 6,8 5,7 1 1 ONO 1017,1 0,0
17.03.2019 07:00:00 6,0 5,0 4 2 ONO 1016,7 0,0
17.03.2019 06:00:00 5,1 4,1 8 4 NO 1016,4 0,0
17.03.2019 05:00:00 5,2 4,2 5 3 OSO 1016,1 0,0
17.03.2019 04:00:00 5,3 4,3 4 2 ENE 1015,6 0,0
17.03.2019 03:00:00 7,0 5,8 5 3 ENE 1015,9 0,0
17.03.2019 02:00:00 7,2 5,7 10 6 NE 1016,0 0,0
17.03.2019 01:00:00 7,0 5,6 8 5 NE 1015,8 0,0
17.03.2019 00:00:00 7,8 6,1 7 4 ENE 1016,0 0,0
16.03.2019 23:00:00 8,5 6,5 9 5 ENE 1015,8 0,0
16.03.2019 22:00:00 9,2 6,8 11 6 ENE 1015,4 0,0
16.03.2019 21:00:00 10,1 7,3 11 6 E 1015,0 0,0
16.03.2019 20:00:00 11,1 7,8 13 7 ENE 1014,7 0,0
16.03.2019 19:00:00 13,1 7,3 14 7 ENE 1014,3 0,0
16.03.2019 18:00:00 16,8 8,5 11 6 E 1013,6 0,0
16.03.2019 17:00:00 20,5 9,4 9 5 E 1013,2 0,0
16.03.2019 16:00:00 22,7 6,4 5 3 S 1013,3 0,0
16.03.2019 15:00:00 22,4 5,8 5 3 NE 1013,7 0,0
16.03.2019 14:00:00 21,6 5,5 5 3 NNO 1014,0 0,0
16.03.2019 13:00:00 20,3 4,7 8 5 O 1014,6 0,0
16.03.2019 12:00:00 19,2 5,3 6 4 NNO 1015,2 0,0
16.03.2019 11:00:00 16,0 9,7 7 4 NNO 1015,6 0,0
16.03.2019 10:00:00 9,9 8,8 - - - 1015,2 -
16.03.2019 09:00:00 6,9 5,8 4 2 ENE 1015,2 0,0
16.03.2019 08:00:00 5,6 4,6 - - - - 0,0
16.03.2019 07:00:00 1,9 0,9 3 2 ENE 1013,8 0,0
16.03.2019 06:00:00 1,6 0,6 1 0 N 1013,2 0,0
16.03.2019 05:00:00 3,5 2,2 3 2 O 1013,1 0,0
16.03.2019 04:00:00 4,6 3,1 - - - 1013,0 0,0
16.03.2019 03:00:00 4,3 2,5 4 2 E 1013,0 0,0
16.03.2019 02:00:00 6,1 4,6 6 3 N 1013,3 0,0
16.03.2019 01:00:00 4,4 2,3 4 2 NO 1013,1 0,0
16.03.2019 00:00:00 4,9 2,8 - - - 1013,1 0,0
15.03.2019 23:00:00 4,9 2,8 4 2 NNE 1013,0 0,0
15.03.2019 22:00:00 7,2 4,5 6 4 NE 1012,6 0,0
15.03.2019 21:00:00 7,7 4,5 9 5 NE 1011,8 0,0
15.03.2019 20:00:00 8,8 5,2 6 3 E 1011,3 0,0
15.03.2019 19:00:00 11,3 5,8 8 4 ENE 1010,9 0,0
15.03.2019 18:00:00 14,8 6,9 8 4 E 1010,6 0,0
15.03.2019 17:00:00 19,7 5,7 11 6 E 1010,2 0,0
15.03.2019 16:00:00 20,6 3,3 8 5 NE 1010,0 0,0
15.03.2019 15:00:00 20,5 2,3 5 3 NO 1010,3 0,0
15.03.2019 14:00:00 20,0 2,4 6 3 OSO 1010,2 0,0
15.03.2019 13:00:00 18,4 2,7 7 4 O 1011,0 0,0
15.03.2019 12:00:00 16,9 2,1 9 5 O 1011,4 0,0
15.03.2019 11:00:00 15,2 2,0 11 6 NO 1011,7 0,0
15.03.2019 10:00:00 12,8 1,8 8 5 ONO 1012,0 0,0
15.03.2019 09:00:00 10,7 1,2 10 5 ONO 1011,4 0,0
15.03.2019 08:00:00 6,3 0,0 3 2 O 1011,4 0,0
15.03.2019 07:00:00 0,2 -3,4 4 2 O 1010,6 0,0
15.03.2019 06:00:00 1,9 -2,4 1 1 ONO 1010,2 0,0
15.03.2019 05:00:00 0,8 -2,4 2 1 NNE 1009,9 0,0
15.03.2019 04:00:00 0,5 -3,6 10 6 O 1009,3 0,0
15.03.2019 03:00:00 -0,1 -4,4 7 4 O 1009,0 0,0
15.03.2019 02:00:00 3,9 -2,7 6 3 ENE 1008,9 0,0
15.03.2019 01:00:00 2,6 -4,6 10 5 O 1008,6 0,0
15.03.2019 00:00:00 4,2 -3,1 14 7 O 1008,0 0,0
14.03.2019 23:00:00 4,7 -2,4 6 3 SO 1008,4 0,0
14.03.2019 22:00:00 7,9 0,1 8 4 SO 1008,7 0,0
14.03.2019 21:00:00 9,1 2,2 8 4 S 1009,1 0,0
14.03.2019 20:00:00 10,1 2,0 13 7 SE 1009,5 0,0
14.03.2019 19:00:00 10,9 0,9 10 6 SE 1009,8 0,0
14.03.2019 18:00:00 12,3 1,3 6 4 SE 1010,0 0,0
14.03.2019 17:00:00 14,0 0,3 4 2 NNE 1010,0 0,0
14.03.2019 16:00:00 15,0 -1,6 6 3 NO 1011,0 0,0
14.03.2019 15:00:00 15,8 -0,9 10 5 NO 1011,8 0,0
14.03.2019 14:00:00 15,1 0,1 13 7 ONO 1012,6 0,0
14.03.2019 13:00:00 14,3 1,9 16 8 ONO 1014,0 0,0
14.03.2019 12:00:00 12,8 2,1 14 8 ONO 1014,8 0,0
14.03.2019 11:00:00 10,9 3,4 12 6 O 1015,3 0,2
14.03.2019 10:00:00 8,3 4,5 13 7 O 1016,0 0,0
14.03.2019 09:00:00 4,2 3,2 6 4 O 1016,5 0,0
14.03.2019 08:00:00 0,5 -0,4 9 5 O 1016,4 0,0
14.03.2019 07:00:00 -2,3 -3,1 6 3 O 1016,2 0,0
14.03.2019 06:00:00 -2,7 -3,5 - - - 1016,2 0,0
14.03.2019 05:00:00 -2,4 -3,2 3 1 NO 1016,0 0,0
14.03.2019 04:00:00 -1,9 -2,7 3 1 NO 1016,1 0,0
14.03.2019 03:00:00 -1,0 -1,8 4 2 S 1015,6 0,0
14.03.2019 02:00:00 -0,5 -1,3 2 1 O 1015,7 0,0
14.03.2019 01:00:00 -0,6 -1,4 - - - 1015,8 0,0
14.03.2019 00:00:00 -0,5 -1,3 - - - 1015,3 0,0
13.03.2019 23:00:00 0,8 -0,2 4 2 NO 1015,2 0,0
13.03.2019 22:00:00 2,0 0,8 3 2 O 1014,6 0,0
13.03.2019 21:00:00 4,4 2,9 3 2 NO 1014,1 0,0
13.03.2019 20:00:00 6,4 4,4 2 1 N 1014,0 0,2
13.03.2019 19:00:00 6,9 4,4 6 3 N 1013,5 0,0

tt = Temperatura
td = dewpoint
ff = velocità del vento
dd = direzione del vento
ppp = reduced air pressure
rr = precipitazioni

Stazioni seguenti

WeatherPro
AMSI
MeteoEarth